This is the latest recevied weather packets stored in our database for station/object N0QV. If no packets are shown the sender has not sent any weather packets the latest 10 day(s).
| Time | Temp. | Humidity | Pressure | Rain* | Wind** | Luminosity | Snow |
|---|---|---|---|---|---|---|---|
| 1778020285 | 11.67° C | 33% | 1011.1 hPa | 0 mm | - | 343 W/m² | - |
| 1778019981 | 11.67° C | 34% | 1011 hPa | 0 mm | - | 140 W/m² | - |
| 1778019677 | 12.22° C | 33% | 1011.1 hPa | 0 mm | - | 192 W/m² | - |
| 1778019375 | 11.11° C | 34% | 1011.2 hPa | 0 mm | - | 381 W/m² | - |
| 1778019071 | 11.11° C | 33% | 1011.1 hPa | 0 mm | - | 149 W/m² | - |
| 1778018769 | 11.67° C | 32% | 1011.2 hPa | 0 mm | - | 147 W/m² | - |
| 1778018466 | 11.11° C | 34% | 1011.4 hPa | 0 mm | - | 193 W/m² | - |
| 1778018164 | 11.11° C | 33% | 1011.4 hPa | 0 mm | - | 180 W/m² | - |
| 1778017862 | 11.67° C | 33% | 1011.3 hPa | 0 mm | - | 162 W/m² | - |
| 1778017560 | 11.11° C | 34% | 1011.3 hPa | 0 mm | - | 183 W/m² | - |
| 1778017256 | 11.11° C | 35% | 1011.4 hPa | 0 mm | - | 134 W/m² | - |
| 1778016954 | 11.11° C | 34% | 1011.5 hPa | 0 mm | - | 141 W/m² | - |
| 1778016650 | 11.11° C | 34% | 1011.4 hPa | 0 mm | - | 128 W/m² | - |
| 1778016346 | 11.11° C | 34% | 1011.3 hPa | 0 mm | - | 142 W/m² | - |
| 1778016044 | 11.67° C | 36% | 1011.5 hPa | 0 mm | - | 181 W/m² | - |
| 1778015741 | 12.22° C | 33% | 1011.4 hPa | 0 mm | - | 327 W/m² | - |
| 1778015437 | 13.33° C | 32% | 1011.4 hPa | 0 mm | - | 137 W/m² | - |
| 1778015134 | 12.22° C | 31% | 1011.3 hPa | 0 mm | - | 609 W/m² | - |
| 1778014832 | 13.33° C | 33% | 1011.6 hPa | 0 mm | - | 591 W/m² | - |
| 1778014530 | 12.22° C | 31% | 1011.5 hPa | 0 mm | - | 381 W/m² | - |
| 1778014226 | 12.22° C | 33% | 1011.7 hPa | 0 mm | - | 445 W/m² | - |
| 1778013924 | 11.67° C | 36% | 1011.6 hPa | 0 mm | - | 339 W/m² | - |
| 1778013621 | 11.67° C | 35% | 1011.9 hPa | 0 mm | - | 314 W/m² | - |
| 1778013318 | 10.56° C | 33% | 1011.8 hPa | 0 mm | - | 208 W/m² | - |
| 1778013014 | 11.11° C | 36% | 1011.5 hPa | 0 mm | - | 154 W/m² | - |
* Rain latest hour (hover to see other rain measurements)
** Current wind speed in m/s (hover to see current wind gust speed)